AUA25E LKPR-LOWW

Flight info

Callsign AUA25E
Flight time N/A
Altitude 17000
Route VOZ4B/30 VOZ DCT LANUX LANUX7W
Aircraft A320/M-SDE3FGHIRWY/LB1

Departure

Time 2026-05-07 19:25
Airport Václav Havel Airport Prague (LKPR)

Arrival

Time N/A
Airport Vienna International Airport (LOWW)
Time Latitude Longitude Altitude Speed Heading
2026-05-07 18:48 50.10928 14.26619 1170 ft 0 kts 215°
2026-05-07 19:12 50.10932 14.26623 1174 ft 3 kts 215°
2026-05-07 19:13 50.10949 14.26641 1169 ft 3 kts 215°
2026-05-07 19:13 50.10967 14.26658 1171 ft 4 kts 261°
2026-05-07 19:13 50.10966 14.26659 1171 ft 4 kts 321°
2026-05-07 19:13 50.10948 14.26688 1172 ft 4 kts 314°
2026-05-07 19:14 50.10932 14.26709 1174 ft 1 kts 319°
2026-05-07 19:17 50.10935 14.26705 1175 ft 4 kts 319°
2026-05-07 19:17 50.10968 14.26649 1171 ft 10 kts 312°
2026-05-07 19:17 50.11017 14.26560 1168 ft 11 kts 307°
2026-05-07 19:17 50.10998 14.26462 1168 ft 10 kts 218°
2026-05-07 19:18 50.10955 14.26412 1170 ft 8 kts 214°
2026-05-07 19:18 50.10876 14.26330 1172 ft 18 kts 214°
2026-05-07 19:18 50.10770 14.26219 1173 ft 17 kts 217°
2026-05-07 19:18 50.10690 14.26130 1175 ft 10 kts 214°
2026-05-07 19:19 50.10626 14.26066 1182 ft 14 kts 212°
2026-05-07 19:19 50.10544 14.25986 1187 ft 11 kts 207°
2026-05-07 19:19 50.10484 14.26015 1189 ft 13 kts 133°
2026-05-07 19:19 50.10403 14.26182 1191 ft 24 kts 126°
2026-05-07 19:20 50.10294 14.26409 1195 ft 27 kts 127°
2026-05-07 19:20 50.10182 14.26642 1202 ft 26 kts 126°
2026-05-07 19:20 50.10070 14.26864 1208 ft 25 kts 127°
2026-05-07 19:20 50.09980 14.27051 1209 ft 19 kts 124°
2026-05-07 19:21 50.09914 14.27188 1211 ft 15 kts 127°
2026-05-07 19:21 50.09822 14.27361 1212 ft 27 kts 134°
2026-05-07 19:21 50.09686 14.27571 1216 ft 26 kts 134°
2026-05-07 19:21 50.09570 14.27742 1224 ft 19 kts 139°
2026-05-07 19:22 50.09499 14.27853 1229 ft 10 kts 134°
2026-05-07 19:22 50.09429 14.27962 1233 ft 19 kts 134°
2026-05-07 19:22 50.09316 14.28134 1237 ft 23 kts 136°
2026-05-07 19:22 50.09206 14.28275 1241 ft 17 kts 167°
2026-05-07 19:23 50.09109 14.28210 1249 ft 19 kts 225°
2026-05-07 19:23 50.09112 14.28030 1241 ft 16 kts 305°
2026-05-07 19:23 50.09131 14.27990 1238 ft 0 kts 307°
2026-05-07 19:24 50.09137 14.27979 1248 ft 9 kts 307°
2026-05-07 19:24 50.09336 14.27570 1230 ft 84 kts 307°
2026-05-07 19:24 50.09811 14.26589 1206 ft 140 kts 307°
2026-05-07 19:25 50.10467 14.25218 1470 ft 166 kts 307°
2026-05-07 19:25 50.11164 14.23754 2226 ft 168 kts 308°
2026-05-07 19:25 50.11881 14.22278 2832 ft 178 kts 308°
2026-05-07 19:25 50.12676 14.20644 3201 ft 202 kts 307°
2026-05-07 19:26 50.13559 14.18820 3605 ft 226 kts 307°
2026-05-07 19:26 50.14553 14.16763 4112 ft 248 kts 307°
2026-05-07 19:26 50.15622 14.14542 4961 ft 256 kts 306°
2026-05-07 19:26 50.16688 14.12325 5858 ft 261 kts 306°
2026-05-07 19:27 50.17750 14.10008 6792 ft 265 kts 298°
2026-05-07 19:27 50.18354 14.07289 7625 ft 268 kts 276°
2026-05-07 19:27 50.18177 14.04366 8507 ft 272 kts 250°
2026-05-07 19:27 50.17169 14.01852 9371 ft 278 kts 224°
2026-05-07 19:28 50.15511 14.00289 10207 ft 284 kts 198°
2026-05-07 19:28 50.13534 14.00061 10997 ft 292 kts 171°
2026-05-07 19:28 50.11641 14.01304 11555 ft 309 kts 144°
2026-05-07 19:28 50.09969 14.03626 11813 ft 334 kts 137°
2026-05-07 19:29 50.08239 14.06236 12026 ft 357 kts 136°
2026-05-07 19:29 50.06413 14.09043 12166 ft 380 kts 136°
2026-05-07 19:29 50.04485 14.12001 12407 ft 397 kts 136°
2026-05-07 19:29 50.02490 14.15039 12940 ft 404 kts 137°
2026-05-07 19:30 50.00467 14.18088 13560 ft 408 kts 137°
2026-05-07 19:30 49.98408 14.21168 14135 ft 412 kts 137°
2026-05-07 19:30 49.96329 14.24259 14696 ft 416 kts 137°
2026-05-07 19:30 49.94230 14.27371 15242 ft 419 kts 137°
2026-05-07 19:31 49.92110 14.30508 15768 ft 423 kts 138°
2026-05-07 19:31 49.89976 14.33658 15981 ft 425 kts 138°
2026-05-07 19:31 49.87830 14.36821 16030 ft 425 kts 138°
2026-05-07 19:31 49.85688 14.39979 16028 ft 425 kts 138°
2026-05-07 19:32 49.83546 14.43137 16026 ft 425 kts 138°
2026-05-07 19:32 49.81404 14.46292 16023 ft 425 kts 138°
2026-05-07 19:32 49.79262 14.49449 16025 ft 425 kts 138°
2026-05-07 19:32 49.77118 14.52605 16026 ft 425 kts 139°
2026-05-07 19:33 49.74972 14.55758 16023 ft 425 kts 139°
2026-05-07 19:33 49.72826 14.58906 16021 ft 425 kts 139°
2026-05-07 19:33 49.70685 14.62038 16020 ft 425 kts 139°
2026-05-07 19:33 49.68525 14.65194 16020 ft 425 kts 139°
2026-05-07 19:34 49.66386 14.68316 16017 ft 426 kts 139°
2026-05-07 19:34 49.64231 14.71463 16022 ft 426 kts 139°
2026-05-07 19:34 49.62073 14.74611 16021 ft 426 kts 139°
2026-05-07 19:34 49.59927 14.77734 16020 ft 426 kts 139°
2026-05-07 19:35 49.57767 14.80870 16019 ft 426 kts 139°
2026-05-07 19:35 49.55616 14.83991 16021 ft 426 kts 139°
2026-05-07 19:35 49.53454 14.87098 16020 ft 425 kts 141°
2026-05-07 19:35 49.51134 14.89900 16022 ft 423 kts 146°
2026-05-07 19:36 49.48790 14.92632 16023 ft 423 kts 146°
2026-05-07 19:36 49.46452 14.95361 16025 ft 423 kts 146°
2026-05-07 19:36 49.44108 14.98101 16023 ft 423 kts 146°
2026-05-07 19:36 49.41768 15.00835 16025 ft 423 kts 146°
2026-05-07 19:37 49.39427 15.03565 16027 ft 422 kts 146°
2026-05-07 19:37 49.37083 15.06290 16026 ft 422 kts 146°
2026-05-07 19:37 49.34738 15.09011 16026 ft 422 kts 146°
2026-05-07 19:37 49.32419 15.11689 16024 ft 422 kts 146°
2026-05-07 19:38 49.30053 15.14423 16028 ft 422 kts 146°
2026-05-07 19:38 49.27710 15.17127 16030 ft 421 kts 146°
2026-05-07 19:38 49.25366 15.19831 16030 ft 421 kts 146°
2026-05-07 19:38 49.23027 15.22528 16029 ft 421 kts 146°
2026-05-07 19:39 49.20689 15.25219 16029 ft 421 kts 146°
2026-05-07 19:39 49.18348 15.27910 16028 ft 420 kts 146°
2026-05-07 19:39 49.16008 15.30592 16023 ft 420 kts 146°
2026-05-07 19:39 49.14462 15.32361 16025 ft 420 kts 146°
2026-05-07 19:40 49.11364 15.35903 16027 ft 420 kts 146°
2026-05-07 19:40 49.09034 15.38567 16025 ft 419 kts 146°
2026-05-07 19:40 49.06693 15.41243 16025 ft 419 kts 146°
2026-05-07 19:40 49.04360 15.43908 16029 ft 420 kts 146°
2026-05-07 19:41 49.02023 15.46575 16028 ft 420 kts 146°
2026-05-07 19:41 48.99681 15.49245 16027 ft 420 kts 146°
2026-05-07 19:41 48.97348 15.51900 15935 ft 420 kts 146°
2026-05-07 19:41 48.95010 15.54558 15280 ft 421 kts 146°
2026-05-07 19:42 48.92654 15.57228 15043 ft 422 kts 146°
2026-05-07 19:42 48.90298 15.59893 15017 ft 423 kts 146°
2026-05-07 19:42 48.87938 15.62565 15028 ft 424 kts 146°